GFSCGP_sfc_30mbdewp_219.txt.gz
Dewpoint
27 15 7 12 19 14 15 12 10 12 24 22 21 19 19 17 23 22 20 23 28 29 32 36 37 35 35 36 37 36 39 41 41 40 40 41 41 43 44 45 46 46 47 47
22 11 20 21 20 19 19 17 16 15 23 20 19 18 19 17 19 22 19 20 26 30 34 36 36 34 35 35 36 40 41 41 41 42 42 42 43 44 45 46 46 46 47 47
13 16 26 25 23 22 21 16 13 11 20 20 17 11 12 18 18 20 22 21 24 29 33 35 35 34 32 34 39 40 40 40 41 43 43 43 44 44 43 45 46 47 47 48
20 24 26 23 22 22 17 22 20 17 16 11 15 1 2 6 18 20 21 21 23 29 35 35 34 31 31 37 41 40 40 41 42 44 44 43 43 43 44 45 46 47 47 48
9 24 25 23 21 23 20 27 22 19 16 14 14 9 7 13 12 17 21 23 23 30 34 35 31 30 34 40 40 41 41 42 43 44 44 44 43 44 44 44 45 44 45 46
22 28 28 26 28 27 27 20 19 16 15 11 13 11 8 4 8 17 22 26 28 33 33 30 30 35 39 40 41 41 41 42 44 44 44 42 42 42 42 42 42 42 43 43
20 23 26 29 25 25 20 18 8 6 9 4 13 10 10 8 7 17 22 25 28 29 28 29 32 35 39 39 40 41 41 42 43 43 42 41 41 41 42 42 42 42 42 42
9 3 24 28 24 21 21 18 9 0 0 5 16 6 2 14 20 21 24 25 27 27 27 28 30 35 39 39 40 41 41 42 42 41 40 41 41 42 42 42 42 42 42 43
15 15 27 29 29 25 24 20 18 15 15 14 12 13 15 19 20 21 24 25 25 26 26 26 30 39 39 39 40 41 42 41 40 39 40 40 41 42 42 42 43 43 44 44
21 14 24 28 29 28 24 23 19 19 9 8 9 8 7 13 17 21 23 24 25 26 26 27 35 38 39 40 40 41 41 40 39 39 39 39 40 43 44 44 43 43 42 42
23 20 19 29 26 24 25 23 21 19 14 8 5 5 14 16 19 21 23 25 25 26 26 27 36 38 39 40 40 40 40 39 39 38 38 39 41 43 43 42 41 40 40 40
26 23 19 19 24 27 26 25 21 16 14 16 13 12 17 20 21 23 24 25 26 26 27 27 36 37 38 39 39 39 39 39 39 38 38 40 41 41 41 40 39 39 38 39
28 24 20 18 21 23 23 24 22 21 19 17 14 13 21 21 21 24 24 25 25 26 27 28 34 35 37 38 39 39 38 38 38 38 38 39 40 40 39 38 38 38 38 39
30 25 20 12 16 21 20 21 22 21 19 19 18 18 19 20 21 23 24 25 25 26 26 27 27 32 37 38 38 40 39 38 38 38 38 39 39 39 38 37 37 37 38 38
28 25 24 24 23 24 24 22 22 22 21 20 19 19 20 21 21 22 24 25 25 25 24 25 26 27 35 38 39 40 38 38 38 38 37 37 38 38 37 37 37 37 38 38
33 26 26 24 24 25 24 25 25 24 24 23 22 21 22 22 22 23 23 24 24 23 22 22 25 28 35 38 39 39 38 37 38 37 37 37 37 37 36 36 37 37 37 38
30 28 24 20 21 19 17 19 21 21 21 21 19 20 23 23 23 22 23 24 24 22 19 23 26 31 37 38 40 38 37 37 37 37 37 37 37 36 36 36 36 36 36 37
28 26 25 20 19 13 14 19 19 19 14 12 14 15 18 22 24 23 26 25 22 20 25 28 31 35 38 39 39 38 37 37 37 37 37 37 36 35 35 35 35 36 36 36
30 27 22 18 17 16 15 16 17 19 10 7 11 18 22 20 17 16 19 21 23 25 27 29 32 36 38 38 39 38 37 36 37 36 36 36 36 35 35 34 35 35 35 34
24 29 24 20 15 10 13 15 12 18 13 7 8 9 13 19 18 14 15 15 15 18 21 23 27 32 35 38 39 38 37 36 35 36 37 37 36 34 34 34 35 35 34 33
19 20 18 19 17 17 5 6 10 13 9 5 5 5 5 7 15 17 17 14 13 12 13 15 23 24 30 37 38 38 37 36 36 36 37 36 36 35 34 35 34 34 34 33
17 17 17 18 16 14 1 2 11 2 4 4 4 6 5 6 5 8 13 15 14 11 10 11 16 21 25 33 37 36 37 37 36 37 37 36 36 35 34 34 33 32 31 31
14 17 16 18 15 3 2 -4 1 5 3 3 5 7 8 8 6 7 6 7 8 9 11 11 12 13 17 24 29 28 34 36 36 36 36 36 37 36 34 32 31 30 30 30
8 8 8 7 7 8 2 1 3 4 3 5 8 9 10 10 11 10 10 10 9 9 9 10 11 12 12 16 20 23 34 36 36 36 36 36 36 36 35 32 31 28 28 28
8 6 3 4 3 1 0 1 4 5 7 8 10 11 12 13 14 13 13 13 12 12 12 12 11 12 12 15 18 18 33 36 36 36 36 36 35 35 33 32 30 28 29 28
8 5 3 0 1 3 4 7 9 10 11 12 12 14 16 17 16 16 15 15 14 14 14 13 13 13 13 15 16 18 32 36 36 35 36 35 34 32 32 31 33 34 33 33

GFSCGP_sfc_30mbdewp_222.txt.gz
Dewpoint
29 19 16 11 19 15 15 12 10 12 23 23 20 20 19 18 23 21 23 22 25 28 32 36 36 37 37 38 38 38 40 41 40 40 40 39 40 42 43 44 45 45 46 47
23 16 20 21 20 20 19 15 14 17 22 21 18 18 18 19 18 21 22 22 24 29 33 36 37 36 36 38 39 40 41 41 42 42 42 43 43 43 44 45 45 46 46 48
13 18 26 26 25 21 18 13 11 11 20 22 18 9 13 18 19 21 23 23 24 29 32 35 36 35 37 38 40 40 41 41 42 44 44 44 43 43 43 43 44 45 46 46
19 23 26 24 22 23 20 21 20 18 18 14 16 4 7 9 17 18 21 23 21 28 32 35 35 35 36 40 41 42 41 42 43 44 44 43 42 42 43 43 43 43 44 44
16 24 25 24 21 23 22 27 23 21 22 20 16 16 2 10 7 14 19 20 23 26 32 35 35 34 36 41 42 42 41 43 44 44 44 42 42 41 41 41 41 42 42 43
22 28 28 24 28 28 26 21 20 21 22 18 13 10 2 3 6 15 21 21 23 24 32 35 34 35 40 42 42 42 41 43 43 43 42 41 40 40 41 42 42 42 42 43
20 21 26 29 25 27 23 19 18 17 17 8 12 12 6 10 9 13 16 22 26 25 33 33 34 37 39 41 41 41 42 42 42 41 40 40 40 42 43 42 41 42 41 42
15 14 23 29 24 20 23 19 17 8 8 8 15 7 3 15 19 21 22 25 28 30 32 32 34 37 40 40 41 41 42 42 41 39 39 40 41 42 43 43 43 43 43 43
16 14 26 29 29 24 23 20 19 17 15 14 6 11 13 19 20 21 24 28 29 31 31 32 35 38 39 39 40 41 41 41 40 39 38 38 40 41 41 43 43 43 43 42
19 13 25 29 30 29 25 22 20 20 14 10 9 7 7 15 18 22 24 28 29 28 28 30 36 38 39 40 41 41 41 40 39 38 37 37 39 40 41 42 41 41 41 40
23 20 21 29 26 23 24 21 21 21 18 15 6 5 15 18 20 21 23 27 27 26 27 31 37 38 39 40 40 40 40 39 39 38 37 38 40 41 41 41 40 40 39 39
26 23 17 17 25 27 27 23 20 15 14 18 16 12 17 21 22 23 23 26 27 27 27 30 37 38 38 38 39 39 39 39 39 38 37 38 40 41 40 40 39 39 39 39
27 23 18 18 21 24 24 24 24 21 19 17 14 9 21 21 22 24 24 26 27 27 28 30 36 37 36 37 39 40 39 39 39 38 38 38 39 40 39 39 38 38 38 39
30 26 19 14 17 22 21 22 23 22 19 16 16 14 17 19 21 23 24 26 26 27 28 28 30 32 36 38 39 40 41 40 39 38 38 38 38 39 38 38 38 38 38 39
31 27 25 23 21 23 22 21 21 21 22 19 18 18 20 21 22 22 24 26 25 26 26 26 26 29 35 38 39 40 40 39 38 37 37 37 38 38 37 37 38 38 38 38
33 28 28 26 26 27 26 24 24 23 22 21 21 21 23 23 23 23 23 26 25 25 24 24 26 29 35 37 39 40 39 38 38 37 37 37 37 37 36 37 37 37 37 37
30 29 26 21 24 25 21 22 23 23 23 22 21 20 19 21 23 25 24 26 25 24 21 23 26 31 36 38 40 40 39 38 37 37 37 37 37 36 36 36 36 36 36 37
29 27 27 23 22 14 15 18 20 18 12 10 13 15 19 21 24 21 24 26 26 22 23 28 32 35 38 39 40 40 39 37 37 37 36 37 37 35 35 35 36 36 36 35
31 29 23 18 18 14 16 17 18 16 9 9 14 19 20 19 17 16 22 25 23 26 29 31 34 36 38 39 39 39 38 38 37 36 36 37 37 35 35 35 35 35 35 34
25 30 26 22 16 12 14 13 10 17 12 6 7 6 9 19 19 12 15 20 21 22 23 26 30 33 36 38 39 38 38 38 37 36 36 38 37 36 34 35 35 35 34 33
20 21 19 21 19 17 10 6 11 14 6 5 5 6 5 8 11 16 15 12 12 12 14 18 24 25 29 35 37 35 36 37 37 37 37 37 37 36 35 35 34 34 33 32
16 17 15 17 18 14 2 4 13 4 6 4 5 6 5 6 6 9 13 11 11 12 12 12 16 18 23 28 31 26 26 35 37 37 37 37 37 36 34 34 33 32 31 31
15 17 15 17 12 -0 -1 -2 4 4 6 5 5 7 8 8 7 8 8 8 9 9 11 11 12 13 15 19 24 22 20 34 37 37 37 37 37 37 35 34 31 29 28 30
10 9 13 10 9 4 -0 1 3 3 3 4 5 7 9 9 10 11 13 12 12 12 12 12 11 11 12 15 17 19 20 30 36 37 36 37 36 36 36 34 30 27 26 28
8 8 6 6 5 4 0 1 3 6 8 10 11 11 12 13 13 15 15 15 15 15 15 15 14 14 13 13 13 17 19 31 36 36 36 36 37 36 35 32 29 27 29 28
8 5 4 1 2 0 2 3 8 11 12 12 13 14 14 15 16 16 16 17 17 17 17 17 17 16 15 15 14 16 18 30 35 35 36 36 36 35 34 31 32 34 33 32

GFSCGP_sfc_30mbdewp_225.txt.gz
Dewpoint
27 17 17 12 15 16 14 9 5 5 16 21 16 16 14 15 18 18 18 20 22 26 30 34 34 36 36 37 38 39 40 40 40 41 40 39 41 42 43 44 45 45 45 47
22 19 19 21 18 16 15 13 11 11 17 20 13 12 16 15 17 19 17 18 21 25 30 35 35 36 36 38 39 40 40 40 42 42 43 43 43 43 44 45 45 45 45 46
15 15 24 24 21 19 15 11 9 9 15 17 17 9 8 12 15 18 18 18 21 25 30 34 36 36 37 39 40 40 41 41 42 43 44 43 43 42 42 43 43 44 44 44
18 21 20 19 20 19 19 20 18 17 16 14 15 7 4 7 15 16 18 19 21 24 29 34 35 35 38 40 41 41 42 42 43 44 43 43 42 41 42 41 42 42 42 43
21 19 23 21 19 20 17 26 22 22 20 21 15 15 4 7 6 13 17 21 22 24 29 33 35 36 37 41 42 41 42 43 43 44 43 42 41 40 40 41 42 42 43 43
21 27 26 19 26 25 25 21 21 24 24 21 13 9 8 4 5 15 17 18 22 22 28 32 35 36 39 42 43 41 41 43 43 42 41 40 40 41 41 42 42 41 42 42
20 21 24 27 22 27 25 18 20 20 20 11 12 11 9 8 11 14 15 16 21 22 26 33 35 36 40 41 42 41 41 42 41 40 40 40 40 41 42 42 42 42 42 42
18 23 22 25 22 19 23 18 19 16 12 8 13 7 6 14 18 20 21 22 24 25 25 33 35 37 40 41 40 40 41 41 40 39 38 38 39 41 41 42 42 42 43 43
15 15 24 27 26 23 21 20 20 17 11 10 5 7 12 18 19 21 23 27 28 28 29 34 35 38 39 39 39 40 41 40 40 39 38 37 37 39 40 41 41 41 42 41
18 14 23 28 29 28 25 22 19 18 15 8 5 7 8 16 18 21 24 28 29 30 32 34 36 37 38 38 40 40 40 39 39 38 37 37 38 39 40 39 39 40 40 40
23 19 21 27 25 19 25 20 21 22 20 18 7 6 17 19 20 22 23 28 29 30 31 33 36 37 37 38 39 40 39 39 38 38 37 37 37 39 40 40 40 40 39 39
25 22 19 17 22 27 26 21 18 16 14 18 19 14 20 22 22 23 23 28 29 29 29 33 36 37 37 37 38 39 39 39 39 38 37 38 38 39 39 40 40 39 39 39
26 22 20 19 21 23 23 23 24 20 19 17 15 10 21 22 22 23 24 26 27 27 28 33 36 36 36 36 38 39 39 40 40 38 38 38 38 38 39 39 39 39 39 39
29 24 21 17 17 20 20 21 24 22 19 16 16 14 17 19 19 23 24 26 26 27 28 30 33 34 34 36 38 39 41 40 40 38 38 38 38 38 38 38 39 38 38 38
28 26 24 22 21 20 19 18 20 22 22 20 20 17 17 19 21 23 24 26 25 26 27 28 29 30 34 37 38 40 41 40 39 38 37 37 37 37 38 37 38 38 38 38
35 28 29 28 28 24 23 22 22 22 21 22 20 20 20 22 24 23 22 23 25 26 26 26 26 28 33 36 37 39 40 39 39 38 37 37 36 36 37 37 37 37 37 37
31 29 24 21 21 25 24 22 21 20 22 21 18 20 19 20 21 23 25 26 25 26 25 24 26 30 34 36 38 39 39 39 38 38 37 36 37 37 36 36 37 36 36 36
31 29 28 23 25 15 15 18 20 21 17 14 16 17 19 21 24 21 22 25 27 26 23 24 30 34 36 39 39 39 39 38 38 38 37 36 36 37 36 36 36 36 36 35
32 30 25 19 15 15 14 17 16 15 13 10 13 18 20 20 18 17 23 26 27 23 27 31 34 36 37 37 38 38 38 38 38 37 37 36 36 37 36 35 36 36 35 34
27 31 27 24 17 10 13 13 11 18 13 8 11 10 11 17 19 13 17 25 26 27 27 30 32 34 34 36 37 35 35 37 36 37 37 37 37 37 36 35 35 35 35 34
18 21 20 20 20 17 14 10 14 12 7 7 7 7 8 11 11 14 11 11 12 14 17 21 23 24 27 32 33 28 27 26 35 38 37 37 37 37 36 35 36 34 34 33
14 14 16 17 19 15 7 9 14 8 8 6 6 6 6 6 7 11 14 11 10 11 11 12 15 17 20 24 27 22 20 24 35 37 37 37 37 37 36 37 35 33 30 31
14 15 15 15 15 1 3 3 4 6 6 6 4 5 6 5 6 8 9 9 9 10 10 11 11 11 13 16 18 18 17 21 31 36 37 37 37 37 37 37 37 32 27 28
13 12 17 13 11 2 0 2 2 2 2 3 3 5 6 7 7 7 8 10 12 12 12 13 13 13 13 13 14 16 17 17 27 33 35 37 37 37 37 37 36 31 25 25
8 9 10 10 7 8 6 2 3 4 5 7 10 11 11 12 12 12 12 13 13 14 14 15 15 15 14 14 14 14 15 17 24 31 34 36 37 37 36 36 35 30 28 28
8 7 5 -0 4 6 2 2 3 6 7 9 10 11 11 12 13 14 14 15 15 16 17 17 17 17 17 17 16 16 16 17 21 28 33 35 37 36 35 35 35 34 33 32

GFSCGP_sfc_30mbdewp_228.txt.gz
Dewpoint
28 19 20 18 17 18 18 14 11 10 19 19 17 18 18 17 18 18 18 22 24 28 31 33 35 35 37 39 39 41 41 42 43 42 41 41 43 44 45 46 46 47 46 47
23 23 23 22 19 16 14 13 14 14 17 19 18 16 16 16 17 19 19 19 23 27 31 34 36 37 37 39 40 41 41 42 43 44 44 44 44 44 45 46 45 46 45 46
17 18 23 22 20 20 19 14 13 13 16 16 15 16 17 16 17 18 20 19 21 26 31 35 37 37 38 40 41 41 42 43 44 44 45 44 44 44 44 43 43 44 44 44
21 22 19 18 19 19 18 24 21 18 17 15 16 13 12 8 11 15 19 19 20 27 32 35 37 37 40 41 41 42 42 43 44 44 43 43 42 41 42 42 43 44 44 44
22 20 22 22 21 19 20 24 23 23 23 23 21 18 14 8 11 14 18 19 20 26 32 35 37 38 41 42 42 43 43 44 44 44 43 42 41 41 42 43 43 43 43 44
21 27 24 22 26 25 25 22 21 24 25 20 19 12 12 9 11 16 18 19 22 26 31 35 37 39 43 44 43 42 43 43 43 42 41 41 41 41 42 43 43 43 43 43
23 21 25 26 24 27 26 21 17 21 20 12 12 12 11 14 16 18 18 18 20 24 30 35 37 40 43 43 43 42 42 42 41 40 40 40 40 41 42 42 42 42 42 43
19 21 22 26 23 22 25 21 20 18 16 12 12 6 7 17 20 21 22 24 23 25 29 36 37 41 42 43 41 41 42 41 40 39 38 38 39 40 41 41 42 42 41 42
16 18 26 26 25 24 22 21 21 19 17 14 11 10 17 20 22 23 25 27 27 27 31 37 38 41 42 41 40 41 41 40 39 38 37 37 38 39 40 40 41 40 40 40
19 16 23 28 29 28 26 24 19 19 10 11 10 8 14 19 22 23 26 29 29 31 35 36 39 40 40 40 41 41 41 40 39 38 37 37 38 39 39 40 40 40 39 40
23 19 22 27 26 22 26 21 21 22 21 18 13 11 20 21 23 23 26 30 31 34 35 37 38 38 39 40 41 40 40 39 38 38 38 38 38 39 39 39 40 39 39 39
25 23 20 20 24 25 26 23 19 17 15 20 18 15 22 22 23 24 25 30 31 32 34 37 37 37 38 39 40 39 39 39 39 38 38 38 39 39 38 39 40 38 39 39
26 24 21 21 22 23 22 22 24 22 20 18 20 16 22 23 23 24 26 28 29 30 33 36 37 37 37 38 39 39 40 40 39 38 38 38 39 38 37 39 39 39 38 38
30 25 23 20 20 21 21 21 21 23 21 19 19 17 19 19 21 24 26 27 27 28 30 36 36 36 37 38 39 40 41 40 39 38 38 38 38 37 37 38 38 39 38 38
30 25 25 24 25 24 23 21 20 22 23 21 19 19 21 22 25 27 25 27 26 27 28 32 34 34 36 38 39 40 41 40 39 38 38 37 37 37 37 37 39 38 37 38
33 27 27 26 27 27 25 24 24 21 20 21 22 21 22 22 25 25 24 26 26 27 28 29 31 33 36 37 39 40 40 39 39 38 37 37 37 37 37 37 37 38 37 37
32 30 26 20 22 22 21 25 26 25 24 22 22 23 20 20 21 24 23 23 24 27 27 27 28 32 36 37 39 40 39 39 38 38 37 36 36 36 36 36 37 37 37 36
31 29 28 22 23 16 17 19 22 25 24 20 19 20 18 21 24 20 23 25 25 26 27 26 30 35 37 39 40 40 39 38 38 38 37 36 36 36 37 36 36 37 36 35
32 29 24 21 20 18 17 17 15 16 15 12 14 17 21 19 20 17 25 29 29 27 29 33 35 37 38 39 39 38 38 39 38 38 37 36 36 37 37 35 36 36 36 34
31 31 26 24 18 14 13 13 15 18 14 11 14 11 12 16 19 12 15 22 24 28 33 34 35 36 37 37 38 36 35 36 36 38 37 37 37 37 37 36 36 36 35 34
22 23 22 21 20 22 12 10 15 11 7 10 9 9 11 11 13 11 12 12 14 18 23 25 28 29 32 33 33 29 27 25 37 38 37 37 37 37 37 36 37 36 34 33
17 17 19 19 18 16 9 12 15 10 9 8 7 8 7 7 10 11 12 10 11 12 12 14 18 20 22 25 27 24 21 24 35 37 37 37 37 38 37 36 37 37 33 29
16 16 18 17 19 2 4 5 8 9 7 6 6 6 6 6 6 7 9 10 10 10 11 12 11 12 14 17 19 18 19 19 26 36 36 36 37 37 37 37 37 35 31 27
15 13 16 17 9 2 2 3 3 6 6 4 5 7 8 8 9 10 10 10 11 13 14 14 14 14 14 16 15 16 17 17 20 30 34 36 36 37 37 37 37 34 29 26
10 11 11 13 9 6 2 2 3 4 6 7 10 11 11 12 12 13 13 14 14 15 16 16 16 16 16 17 16 16 16 17 17 25 32 35 35 37 37 36 36 33 31 29
9 9 8 12 6 9 4 7 5 5 7 8 10 11 12 12 13 14 14 15 15 16 17 17 18 18 18 18 19 18 17 17 17 20 28 34 34 36 36 35 35 34 33 32

GFSCGP_sfc_30mbdewp_231.txt.gz
Dewpoint
28 15 16 19 19 18 16 14 12 13 16 20 19 19 19 19 20 17 18 26 29 29 31 34 37 37 38 40 41 41 41 42 42 42 41 42 43 44 46 46 46 45 45 46
23 19 24 21 19 15 15 12 11 14 19 19 17 16 18 17 17 18 18 20 26 29 32 34 36 37 39 40 41 41 42 43 43 44 44 44 44 45 45 45 45 44 44 45
16 19 23 20 20 20 20 18 17 17 20 18 17 14 16 18 19 19 20 19 25 29 33 34 36 37 39 39 41 41 42 43 44 45 44 44 44 44 42 42 43 44 44 45
19 22 19 17 17 20 16 24 23 21 19 8 21 9 15 13 13 14 19 19 22 30 33 35 36 37 40 41 42 42 43 44 44 44 43 42 41 40 41 43 44 44 44 44
23 21 21 22 22 21 19 24 22 23 21 23 18 15 14 17 11 16 18 19 21 30 34 36 37 38 41 42 42 43 44 44 43 42 42 41 41 41 43 44 43 43 44 44
21 27 24 22 26 25 25 21 21 24 25 17 18 14 6 8 13 15 18 19 22 31 35 36 38 41 42 42 42 43 43 43 42 41 41 41 40 41 42 43 42 42 43 43
23 23 25 26 23 27 25 20 7 16 19 11 15 16 11 14 17 18 18 20 22 32 36 37 39 41 42 42 42 43 43 41 40 40 39 40 40 41 41 41 41 41 41 41
22 19 23 26 24 23 25 20 9 8 16 16 14 10 9 18 21 22 25 26 25 27 36 37 40 42 42 42 42 42 41 40 39 38 38 38 39 40 41 40 41 41 41 40
18 17 25 26 27 23 21 21 22 19 19 14 13 11 17 23 23 24 26 28 28 29 36 38 42 42 42 41 40 42 41 40 39 37 37 37 39 40 39 40 40 40 40 40
21 18 23 27 27 26 25 25 18 19 9 10 13 10 11 20 21 24 28 29 32 36 38 40 41 42 42 40 41 41 41 39 38 37 37 37 38 40 39 40 40 40 39 39
23 20 21 27 25 20 25 21 22 21 20 13 13 11 21 21 22 23 29 30 34 36 38 40 40 40 40 41 41 40 40 38 38 38 38 38 38 39 39 39 40 39 39 39
24 23 21 21 24 25 25 21 20 16 13 20 18 15 22 22 23 24 29 31 33 36 38 39 39 39 40 40 40 39 39 39 38 38 38 39 39 38 38 39 39 39 38 38
26 24 22 20 22 23 22 22 24 22 20 17 16 16 22 23 23 25 29 30 31 33 37 37 38 38 39 40 39 39 40 39 38 38 38 38 38 37 37 38 38 39 38 38
30 28 23 19 20 23 22 22 22 22 20 20 20 19 19 21 22 25 27 28 29 31 36 37 37 37 38 39 39 40 40 40 38 38 38 37 37 37 37 38 38 39 38 37
29 27 27 26 26 25 25 24 24 21 21 20 19 19 20 21 25 28 27 27 27 29 34 36 36 36 37 39 40 41 40 40 39 38 37 37 37 37 37 37 38 38 37 37
32 27 27 25 26 27 25 25 25 25 24 22 22 22 24 23 27 26 29 29 27 28 29 35 36 36 37 39 40 41 40 39 39 38 37 36 36 37 36 36 37 38 37 36
33 30 27 21 23 23 19 21 23 24 25 24 22 22 22 21 24 23 23 24 24 25 27 30 34 36 38 38 40 40 40 39 39 38 36 36 36 35 36 36 37 37 36 36
31 30 28 23 22 15 15 18 23 23 25 26 25 23 21 23 23 23 27 28 29 27 26 29 33 36 37 39 40 40 39 38 38 38 37 36 36 36 37 36 36 36 36 35
33 30 25 21 20 18 19 17 15 16 17 16 16 19 20 21 18 17 26 26 31 33 32 34 37 38 39 39 40 39 39 38 38 37 37 36 36 36 37 36 36 36 35 35
30 31 26 23 18 14 13 14 13 17 14 12 15 14 15 20 18 13 15 21 26 32 35 36 38 38 39 39 39 38 37 37 36 37 37 37 37 37 37 37 36 36 35 35
24 25 21 21 20 22 13 11 15 13 11 10 10 10 13 13 15 12 13 13 16 21 26 30 34 35 34 34 32 29 27 30 37 37 37 37 37 37 37 36 37 37 36 33
19 20 19 21 19 16 10 13 15 12 9 8 8 8 9 10 11 12 11 11 12 13 13 20 22 24 26 28 27 23 21 26 36 36 36 36 37 37 38 37 37 37 36 32
15 17 17 18 17 5 5 8 10 9 7 7 7 7 7 6 7 8 9 10 11 11 12 12 12 13 16 19 19 17 19 20 26 35 35 35 36 36 37 37 37 36 34 33
15 15 16 17 9 3 4 4 6 8 7 7 7 8 8 8 10 11 11 12 12 13 14 15 15 14 14 16 17 18 17 18 18 23 31 35 35 35 36 37 37 35 32 32
14 13 14 15 9 2 3 3 3 5 7 8 10 11 11 11 12 13 13 14 15 16 16 17 16 17 17 18 18 18 17 17 17 19 25 33 35 33 35 37 36 34 32 31
10 10 10 10 12 11 6 4 5 6 7 8 9 10 11 12 12 14 14 15 15 16 17 17 18 18 18 19 19 19 20 19 17 17 20 27 34 33 34 35 35 34 34 32